TimeEST,TemperatureF,Dew PointF,Humidity,Sea Level PressureIn,VisibilityMPH,Wind Direction,Wind SpeedMPH,Gust SpeedMPH,PrecipitationIn,Events,Conditions,WindDirDegrees,DateUTC
12:54 AM,24.1,21.9,91,30.64,6.0,SE,3.5,-,N/A,,Clear,130,2012-11-18 05:54:00
1:54 AM,25.0,23.0,92,30.63,6.0,Calm,Calm,-,N/A,,Clear,0,2012-11-18 06:54:00
2:54 AM,21.9,19.9,92,30.64,7.0,West,3.5,-,N/A,,Clear,280,2012-11-18 07:54:00
3:54 AM,23.0,21.0,92,30.64,6.0,Calm,Calm,-,N/A,,Clear,0,2012-11-18 08:54:00
4:54 AM,23.0,19.9,88,30.67,7.0,Calm,Calm,-,N/A,,Clear,0,2012-11-18 09:54:00
5:54 AM,21.9,19.9,92,30.69,6.0,Calm,Calm,-,N/A,,Clear,0,2012-11-18 10:54:00
6:24 AM,21.2,19.4,93,30.64,7.0,Calm,Calm,-,N/A,,Partly Cloudy,0,2012-11-18 11:24:00
6:54 AM,21.9,19.9,92,30.70,5.0,Calm,Calm,-,N/A,,Clear,0,2012-11-18 11:54:00
7:54 AM,24.1,23.0,96,30.71,6.0,Calm,Calm,-,N/A,,Clear,0,2012-11-18 12:54:00
8:54 AM,30.0,25.0,82,30.69,9.0,Calm,Calm,-,N/A,,Clear,0,2012-11-18 13:54:00
9:54 AM,35.1,26.1,70,30.69,10.0,Calm,Calm,-,N/A,,Clear,0,2012-11-18 14:54:00
10:54 AM,41.0,23.0,49,30.66,10.0,ESE,3.5,-,N/A,,Clear,110,2012-11-18 15:54:00
11:54 AM,43.0,23.0,45,30.64,10.0,Calm,Calm,-,N/A,,Clear,0,2012-11-18 16:54:00
12:54 PM,44.1,19.9,38,30.63,10.0,South,4.6,-,N/A,,Clear,170,2012-11-18 17:54:00
1:54 PM,45.0,19.9,37,30.61,10.0,Calm,Calm,-,N/A,,Clear,0,2012-11-18 18:54:00
2:54 PM,46.0,21.0,37,30.61,10.0,SE,3.5,-,N/A,,Clear,130,2012-11-18 19:54:00
3:54 PM,44.1,21.0,40,30.60,10.0,East,3.5,-,N/A,,Clear,80,2012-11-18 20:54:00
4:54 PM,35.1,24.1,64,30.63,10.0,ESE,4.6,-,N/A,,Clear,120,2012-11-18 21:54:00
5:54 PM,37.0,25.0,62,30.63,10.0,East,4.6,-,N/A,,Clear,80,2012-11-18 22:54:00
6:54 PM,32.0,24.1,73,30.63,10.0,Calm,Calm,-,N/A,,Clear,0,2012-11-18 23:54:00
7:54 PM,28.9,24.1,82,30.64,10.0,Calm,Calm,-,N/A,,Clear,0,2012-11-19 00:54:00
8:54 PM,28.9,24.1,82,30.62,10.0,Calm,Calm,-,N/A,,Clear,0,2012-11-19 01:54:00
9:54 PM,26.1,24.1,92,30.62,10.0,Calm,Calm,-,N/A,,Clear,0,2012-11-19 02:54:00
10:54 PM,25.0,23.0,92,30.60,10.0,ENE,3.5,-,N/A,,Clear,60,2012-11-19 03:54:00